Lexington Weather

Lexington, Massachusetts, USA

68°F
7/3/2020 12:23pm 
  • Lexington Conditions: Overcast
  • Temperature: 67.8°F / 19.9°CColder 1.5°F than last hour.
  • Dew Point: 63.9°FDecreased 1.6°Fsince last hour.
  • Relative Humidity: 87%Decreased 1.0% since last hour.
  • Wind: Wind from NNW NNW 1 mph, 10-min avg: 1 mph, gust: 4 mph
  • Barometer: 29.86 in Steady
  • Visibility: 10 miles
  • Rain Today: 0.00 in
  •   

Regional Weather Roundup
for Boston / Norton, MA

        
000
ASUS41 KBOX 291004
RWRBOX

REGIONAL WEATHER ROUNDUP
NATIONAL WEATHER SERVICE BOSTON/NORTON MA
600 AM EDT MON JUN 29 2020

NOTE:  "FAIR" INDICATES FEW OR NO CLOUDS BELOW 12,000 FEET WITH NO 
SIGNIFICANT WEATHER AND/OR OBSTRUCTIONS TO VISIBILITY.

MAZALL-291100-
EASTERN MASSACHUSETTS
  
CITY           SKY/WX    TMP DP  RH WIND       PRES   REMARKS
BOSTON         CLOUDY    66  65  96 N5        29.77R                  
BEVERLY        RAIN      67  66  97 N3        29.76R FOG              
LAWRENCE       CLOUDY    68  67  96 CALM      29.79R                  
BEDFORD        RAIN      67  65  93 CALM      29.76R                  
BLUE HILL        N/A     64  63  96 NE8       29.77R                  
NORWOOD        CLOUDY    64  62  93 CALM      29.77R FOG              
MARSHFIELD     CLOUDY    66  66 100 CALM      29.76R FOG              
PLYMOUTH       CLOUDY    69  67  93 N3        29.75S FOG              
TAUNTON        CLOUDY    69  65  86 CALM      29.75R                  
NEW BEDFORD    CLOUDY    70  69  97 CALM      29.75R                  
$$

MAZALL-291100-
CAPE COD AND THE ISLANDS
  
CITY           SKY/WX    TMP DP  RH WIND       PRES   REMARKS
FALMOUTH       FOG       68  68 100 CALM      29.75R VSB 1            
HYANNIS        CLOUDY    72  69  90 CALM      29.74R FOG              
CHATHAM        CLOUDY    64  63  96 E8        29.77R FOG              
PROVINCETOWN   CLOUDY    68  68 100 NE6       29.77R FOG              
NANTUCKET      FOG       66  65  96 SW3       29.75R VSB 1/4          
MARTHAS VNYRD  LGT RAIN  68  67  96 CALM      29.73R VSB 1/4          
$$
 
MAZALL-291100-
CENTRAL AND WESTERN MASSACHUSETTS
  
CITY           SKY/WX    TMP DP  RH WIND       PRES   REMARKS
WORCESTER      CLOUDY    66  63  90 N3        29.80R                  
FITCHBURG      CLOUDY    67  64  90 CALM      29.79R                  
ORANGE         CLOUDY    67  65  93 N3        29.80R                  
SPRINGFIELD    CLOUDY    66  66 100 NW3       29.77R                  
WESTFIELD      CLOUDY    64  64 100 CALM      29.78R                  
NORTH ADAMS    CLOUDY    64  62  93 CALM      29.80R                  
PITTSFIELD     LGT RAIN  65  63  93 W6        29.80R                  
$$
 
RIZALL-291100-
RHODE ISLAND
  
CITY           SKY/WX    TMP DP  RH WIND       PRES   REMARKS
PROVIDENCE     CLOUDY    68  67  96 N5        29.76R FOG              
NEWPORT        FOG       70  68  93 NE3       29.75R VSB 1/4          
BLOCK ISLAND   FOG       67  66  97 CALM      29.75  VSB<1/4          
SMITHFIELD     CLOUDY    65  65 100 NW5       29.78R                  
WESTERLY       CLOUDY    70  66  87 CALM      29.75R FOG              
$$
 
CTZALL-291100-
CONNECTICUT
  
CITY           SKY/WX    TMP DP  RH WIND       PRES   REMARKS
BRADLEY INTL   PTCLDY    64  62  93 NW3       29.77R                  
HARTFORD       MOCLDY    68  66  93 N6        29.77R                  
BRIDGEPORT     CLEAR     70  65  84 E3        29.75R                  
DANBURY        CLEAR     63  62  97 SW5       29.80R                  
GROTON         CLOUDY    69  67  93 NE3       29.74R FOG              
NEW HAVEN      CLEAR     69  67  93 NW3       29.75S                  
CHESTER        NOT AVBL                                               
MERIDEN        CLEAR     65  63  93 CALM      29.77R                  
WILLIMANTIC    CLOUDY    69  68  96 MISG      29.76R FOG              
OXFORD         CLEAR     63  63 100 N6        29.79R                  
$$

MEZ002-015-021-024-NHZ003-005-008-011-012-014-VTZ005-008-291100-
NORTHERN NEW ENGLAND
  
CITY           SKY/WX    TMP DP  RH WIND       PRES   REMARKS
PORTLAND ME    LGT RAIN  66  63  90 NE6       29.80R                  
BANGOR ME      CLOUDY    64  60  87 E9        29.87R                  
CONCORD NH     CLOUDY    65  64  97 CALM      29.79R                  
MANCHESTER NH  CLOUDY    69  65  86 NW7       29.77R                  
NASHUA NH      CLOUDY    67  67 100 NW5       29.79R                  
PORTSMOUTH NH  CLOUDY    67  65  95 N6        29.76R                  
JAFFREY NH     CLOUDY    65  62  90 CALM      29.82R                  
KEENE NH       CLOUDY    65  64  97 N3        29.80S                  
BURLINGTON VT  CLOUDY    68  64  87 N8        29.82R FOG              
MT. WASHINGTON RAIN      46  46 100 NE8         N/A  VSB 1/8          
$$

NYZ052-076-291100-
EASTERN NEW YORK
  
CITY           SKY/WX    TMP DP  RH WIND       PRES   REMARKS
ALBANY         LGT RAIN  68  63  84 CALM      29.80R                  
NEW YORK CITY  PTCLDY    73  64  73 NW10      29.76R                  
$$
 
ANZALL-291100-
MARINE OBSERVATIONS
  
STATION/POSITION TIME  TEMP    WIND        PRES    VSBY  WAVE
                       AIR SEA DIR/SP/G                  HT/PER
                 (UTC) (F)     (DEG/KT/KT) (MB)    (MI)  (FT/S)
BOSTON BUOY      0950   67 68   10/  6/  8 1006.5R         2/10
BUZZARDS BAY     0900          180/ 10/ 10 1007.5R
NANTUCKET SOUND  0950   67 70  200/  4/  6 1006.6R         1
MASS BAY-STELLWA 0904   64      20/  4/  4 1005.5R  1 7/8  2/ 6
ISLE OF SHOALS   0900   65      30/  4/  5 1007.2R
S OF BLOCK IS    0926      70                N/A           2/11
$$

......................KEY.........................
  SKY/WX - SKY CONDITION/PRESENT WEATHER
  TMP    - TEMPERATURE IN FAHRENHEIT
  DWPT   - DEWPOINT IN FAHRENHEIT
  RH     - RELATIVE HUMIDITY IN PERCENT
  WIND   - DIRECTION AND SPEED IN MPH
  PRES   - MEAN SEA LEVEL PRESSURE IN INCHES OF HG
  WCI    - WIND CHILL INDEX
  VSB    - VISIBILITY IN MILES
  HX     - HEAT INDEX
  TC     - TEMPERATURE IN CELSIUS
  VRB    - VARIABLE WIND DIRECTION
  N/A    - NOT AVAILABLE
  
      

Other recent Regional Weather Roundups

Fri Jul 3, 12:04pm

Fri Jul 3, 11:04am

Fri Jul 3, 10:04am

Fri Jul 3, 9:04am

Fri Jul 3, 8:04am

Fri Jul 3, 7:04am

Fri Jul 3, 6:04am

Fri Jul 3, 5:04am

Fri Jul 3, 4:04am

Fri Jul 3, 3:04am

Fri Jul 3, 2:04am

Fri Jul 3, 1:04am

Fri Jul 3, 12:04am

Thu Jul 2, 11:05pm

Thu Jul 2, 10:04pm

Thu Jul 2, 9:04pm

Thu Jul 2, 8:04pm

Thu Jul 2, 7:05pm

Thu Jul 2, 6:04pm

Thu Jul 2, 5:05pm

Thu Jul 2, 4:04pm

Thu Jul 2, 3:04pm

Thu Jul 2, 2:04pm

Thu Jul 2, 1:05pm

Thu Jul 2, 12:04pm

Thu Jul 2, 11:04am

Thu Jul 2, 10:05am

Thu Jul 2, 9:05am

Thu Jul 2, 8:04am

Thu Jul 2, 7:04am

Thu Jul 2, 6:05am

Thu Jul 2, 5:04am

Thu Jul 2, 4:04am

Thu Jul 2, 3:04am

Thu Jul 2, 2:04am

Thu Jul 2, 1:04am

Thu Jul 2, 12:05am

Wed Jul 1, 11:05pm

Wed Jul 1, 10:04pm

Wed Jul 1, 9:04pm

Wed Jul 1, 8:04pm

Wed Jul 1, 7:04pm

Wed Jul 1, 6:04pm

Wed Jul 1, 5:05pm

Wed Jul 1, 4:04pm

Wed Jul 1, 3:04pm

Wed Jul 1, 2:04pm

Wed Jul 1, 1:04pm

Wed Jul 1, 12:04pm

Wed Jul 1, 11:04am

Wed Jul 1, 10:04am

Wed Jul 1, 9:04am

Wed Jul 1, 8:05am

Wed Jul 1, 7:04am

Wed Jul 1, 6:04am

Wed Jul 1, 5:04am

Wed Jul 1, 4:04am

Wed Jul 1, 3:04am

Wed Jul 1, 2:04am

Wed Jul 1, 1:04am

Wed Jul 1, 12:04am

Tue Jun 30, 11:04pm

Tue Jun 30, 10:05pm

Tue Jun 30, 9:04pm

Tue Jun 30, 8:05pm

Tue Jun 30, 7:05pm

Tue Jun 30, 6:04pm

Tue Jun 30, 5:04pm

Tue Jun 30, 4:04pm

Tue Jun 30, 3:04pm

Tue Jun 30, 2:04pm

Tue Jun 30, 1:04pm

Tue Jun 30, 12:04pm

Tue Jun 30, 11:04am

Tue Jun 30, 10:04am

Tue Jun 30, 9:04am

Tue Jun 30, 8:04am

Tue Jun 30, 7:04am

Tue Jun 30, 6:04am

Tue Jun 30, 5:04am

Tue Jun 30, 4:04am

Tue Jun 30, 3:04am

Tue Jun 30, 2:04am

Tue Jun 30, 1:04am

Tue Jun 30, 12:04am

Mon Jun 29, 11:04pm

Mon Jun 29, 10:05pm

Mon Jun 29, 9:04pm

Mon Jun 29, 8:05pm

Mon Jun 29, 7:04pm

Mon Jun 29, 6:04pm

Mon Jun 29, 5:04pm

Mon Jun 29, 4:05pm

Mon Jun 29, 3:04pm

Mon Jun 29, 2:04pm

Mon Jun 29, 1:04pm

Mon Jun 29, 12:04pm

Mon Jun 29, 11:04am

Mon Jun 29, 10:04am

Mon Jun 29, 9:04am

Mon Jun 29, 8:04am

Mon Jun 29, 7:04am

Mon Jun 29, 5:04am

Mon Jun 29, 4:04am

Mon Jun 29, 3:04am

Mon Jun 29, 2:04am

Mon Jun 29, 1:04am

Mon Jun 29, 12:04am

Sun Jun 28, 11:05pm

Sun Jun 28, 10:04pm

Sun Jun 28, 9:05pm

Sun Jun 28, 8:04pm

Sun Jun 28, 7:04pm

Sun Jun 28, 6:04pm

Sun Jun 28, 5:04pm

Sun Jun 28, 4:04pm

Sun Jun 28, 3:04pm

Sun Jun 28, 2:05pm

Sun Jun 28, 1:04pm

Sun Jun 28, 12:04pm

Sun Jun 28, 11:04am

Sun Jun 28, 10:04am

Sun Jun 28, 9:04am

Sun Jun 28, 8:04am

Sun Jun 28, 7:04am

Sun Jun 28, 6:04am

Sun Jun 28, 5:04am

Sun Jun 28, 4:04am

Sun Jun 28, 3:04am

Sun Jun 28, 2:05am

Sun Jun 28, 1:04am

Sun Jun 28, 12:05am

Sat Jun 27, 11:04pm

Sat Jun 27, 10:04pm

Sat Jun 27, 9:04pm

Sat Jun 27, 8:04pm

Sat Jun 27, 7:04pm

Sat Jun 27, 6:04pm

Sat Jun 27, 5:04pm

Sat Jun 27, 4:05pm

Sat Jun 27, 3:04pm

Sat Jun 27, 2:04pm

Sat Jun 27, 1:05pm

Sat Jun 27, 12:04pm

Sat Jun 27, 11:04am

Sat Jun 27, 10:04am

Sat Jun 27, 9:04am

Sat Jun 27, 8:04am

Sat Jun 27, 7:04am

Sat Jun 27, 6:04am

Sat Jun 27, 5:05am

Sat Jun 27, 4:04am

Sat Jun 27, 3:04am

Sat Jun 27, 2:04am

Sat Jun 27, 1:04am

Sat Jun 27, 12:04am

Fri Jun 26, 11:04pm

Fri Jun 26, 10:04pm

Fri Jun 26, 9:05pm

Fri Jun 26, 8:04pm

Fri Jun 26, 7:05pm

Fri Jun 26, 6:04pm

Fri Jun 26, 5:04pm

Fri Jun 26, 4:04pm

Fri Jun 26, 3:04pm

Fri Jun 26, 2:05pm

Fri Jun 26, 1:04pm

Meta data:

ID: cf8b239f-ad50-4406-aa39-9e9e9347f91a
Link: https://api.weather.gov/products/cf8b239f-ad50-4406-aa39-9e9e9347f91a